Trang, Thailand

11:45 AM ICT on January 18, 2017 (GMT +0700)
Trang

Weather History for 48567 - November, 2013

Change the Weather History Date:

Wednesday, November 27, 2013

  Actual Average Record
Temperature  
Mean Temperature 84 °F -  
Max Temperature 92 °F 87 °F - ()
Min Temperature 75 °F 72 °F - ()
Cooling Degree Days 18    
Growing Degree Days 34 (Base 50)    
Moisture  
Dew Point 75 °F    
Average Humidity 72    
Maximum Humidity 100    
Minimum Humidity 48    
Precipitation  
Precipitation 0.00 in 0.15 in - ()
Sea Level Pressure  
Sea Level Pressure 29.79 in    
Wind  
Wind Speed 2 mph ()    
Max Wind Speed 9 mph    
Max Gust Speed -    
Visibility 6.0 miles    
Events Thunderstorm    
T = Trace of Precipitation, MM = Missing Value Source: Averaged Metar Reports

Daily Weather History Graph

Daily Weather History Graph

Search for Another Location

Airport or City:

Trip Planner

Search our weather history database for the weather conditions in past years. The results will help you decide how hot, cold, wet, or windy it might be!

Date:

Astronomy

Nov. 27, 2013 Rise Set
Actual Time 6:17 AM ICT 6:01 PM ICT
Civil Twilight 5:54 AM ICT 6:23 PM ICT
Nautical Twilight 5:28 AM ICT 6:49 PM ICT
Astronomical Twilight 5:03 AM ICT 7:15 PM ICT
Moon 12:57 AM ICT (11/27) 1:19 PM ICT (11/27)
Length of Visible Light 12h 28m
Length of Day
11h 43m
Last Quarter, 36% of the Moon is Illuminated
Nov 27
Last Quarter
Dec 3
New
Dec 9
First Quarter
Dec 17
Full
Dec 25
Last Quarter

Hourly Weather History & Observations

Time (ICT) Temp. Heat Index Dew Point Humidity Pressure Visibility Wind Dir Wind Speed Gust Speed Precip Events Conditions
1:00 AM 76 °F - 75 °F 94% 29.81 in 6 mi Calm Calm - -   Scattered Clouds
4:00 AM 76 °F - 75 °F 95% 29.75 in 6 mi Calm Calm - -   Scattered Clouds
7:00 AM 78 °F - 76 °F 93% 29.83 in 4 mi Calm Calm - -   Mist
7:00 AM 77.0 °F - 77.0 °F 100% 29.80 in 3.7 mi Calm Calm - N/A   Partly Cloudy
8:30 AM 80.6 °F 88.1 °F 78.8 °F 94% 29.83 in 5.0 mi Calm Calm - N/A   Partly Cloudy
9:00 AM 84.2 °F 94.1 °F 77.0 °F 79% 29.83 in 6.2 mi Calm Calm - N/A   Partly Cloudy
10:00 AM 88 °F - 74 °F 56% 29.86 in 6 mi Calm Calm - -   Scattered Clouds
10:00 AM 87.8 °F 97.6 °F 75.2 °F 66% 29.83 in 6.2 mi NNE 6.9 mph - N/A   Partly Cloudy
11:00 AM 87.8 °F 95.6 °F 73.4 °F 62% 29.80 in 6.2 mi NNE 6.9 mph - N/A   Partly Cloudy
1:00 PM 91 °F - 74 °F 48% 29.80 in 8 mi SE 3.5 mph - -   Scattered Clouds
1:00 PM 91.4 °F 100.1 °F 73.4 °F 55% 29.77 in 6.2 mi NNE 9.2 mph - N/A   Mostly Cloudy
2:00 PM 89.6 °F 96.2 °F 71.6 °F 55% 29.74 in 6.2 mi NNE 9.2 mph - N/A   Mostly Cloudy
3:00 PM 89.6 °F 98.2 °F 73.4 °F 59% 29.71 in - North - - N/A   Mostly Cloudy
4:00 PM 88 °F - 73 °F 52% 29.75 in 7 mi ENE 6.9 mph - - Thunderstorm Thunderstorm
4:00 PM 86.0 °F 91.8 °F 71.6 °F 62% 29.71 in 6.2 mi ENE 6.9 mph - N/A   Mostly Cloudy
5:00 PM 84.2 °F 90.9 °F 73.4 °F 70% 29.74 in 6.2 mi ENE 6.9 mph - N/A   Mostly Cloudy
6:00 PM 82.4 °F 89.5 °F 75.2 °F 79% 29.77 in 6.2 mi East 3.5 mph - N/A   Mostly Cloudy
7:00 PM 83 °F - 77 °F 76% 29.83 in 6 mi Calm Calm - -   Scattered Clouds
10:00 PM 81 °F - 76 °F 81% 29.90 in 6 mi Calm Calm - -   Partly Cloudy